Location: Cluny
(50.9333°N, 112.8167°W)
Time: 01:58:42
(UTC-06:00)

Amateur Radio Satellites - All Passes

Search period start: 23 October 2014 01:28
Search period end: 24 October 2014 01:28
Location: Cluny, 50.9333°N, 112.8167°W

Satellite Date Start Highest point End Downlink Frequencies (MHz)
Time Altitude Azimuth
Oscar 10/S400 23 Oct 01:39:28 02:28:43 18° 236° (WSW) 04:25:27 145.825 - 145.975 CW/USB, Beacon 145.810 USB
MaSat-1 23 Oct 01:41:57 01:46:02 86° 302° (WNW) 01:49:42 437.345 MHz
Oscar 19 23 Oct 01:58:14 02:01:37 17° 88° (E) 02:04:58 437.125 CW, 437.150 USB
Oscar 16 23 Oct 02:42:43 02:47:33 40° 97° (E) 02:52:22 437.025 USB, Beacon 2401.1428
AO-Echo 23 Oct 02:54:16 02:58:55 30° 94° (E) 03:03:34 ?
JAS-1B 23 Oct 02:55:06 03:01:13 46° 99° (E) 03:08:23 435.800 - 435.900 CW/SSB
Uribyol 2 23 Oct 02:58:52 03:03:15 26° 93° (E) 03:07:35 436.500 FM
ITAMSAT 1 23 Oct 03:04:18 03:08:47 28° 93° (E) 03:13:12 435.822 SSB
Gurwin Techsat 1B 23 Oct 03:12:37 03:16:24 19° 89° (E) 03:20:09 435.225 FM
MaSat-1 23 Oct 03:19:58 03:22:11 15° 320° (NW) 03:24:17 437.345 MHz
TMSAT-1 23 Oct 03:25:14 03:28:56 19° 88° (E) 03:32:37 436.925 FM
RS-15 23 Oct 03:27:09 03:37:21 41° 349° (N) 03:47:45 29.354 - 29.394 USB, Beacon 29.352 USB
Oscar 19 23 Oct 03:36:26 03:41:35 78° 288° (WNW) 03:46:41 437.125 CW, 437.150 USB
OPAL 23 Oct 03:46:23 03:49:23 16° 50° (NE) 03:52:22 ?
AO-27 23 Oct 03:49:00 03:54:14 63° 102° (ESE) 03:59:25 436.795 MHz FM
Oscar 16 23 Oct 04:22:15 04:26:52 35° 297° (WNW) 04:31:28 437.025 USB, Beacon 2401.1428
Sapphire 23 Oct 04:27:10 04:31:09 21° 108° (ESE) 04:35:10 437.095 MHz 1200 baud AX-25 AFSK
AO-Echo 23 Oct 04:32:48 04:37:53 49° 293° (WNW) 04:42:59 ?
Uribyol 2 23 Oct 04:37:56 04:43:02 54° 292° (WNW) 04:48:05 436.500 FM
Uosat F 23 Oct 04:39:01 04:41:20 13° 86° (E) 04:43:39 435.120 FM
ITAMSAT 1 23 Oct 04:43:28 04:48:33 51° 293° (WNW) 04:53:35 435.822 SSB
JAS-1B 23 Oct 04:46:06 04:51:54 42° 297° (WNW) 04:58:36 435.800 - 435.900 CW/SSB
PCSat 23 Oct 04:48:55 04:53:41 33° 113° (ESE) 04:58:30 145.825 MHz
Gurwin Techsat 1B 23 Oct 04:51:37 04:56:57 75° 288° (WNW) 05:02:15 435.225 FM
JAS-2 23 Oct 05:01:54 05:04:41 12° 77° (ENE) 05:07:29 435.800 - 435.900 CW/SSB, 435.910 FM
TMSAT-1 23 Oct 05:04:08 05:09:28 77° 288° (WNW) 05:14:46 436.925 FM
Oscar 19 23 Oct 05:17:13 05:20:09 16° 308° (NW) 05:23:05 437.125 CW, 437.150 USB
AO-7 23 Oct 05:17:53 05:25:38 41° 97° (E) 05:33:21 29.400 - 29.500 MHz
OPAL 23 Oct 05:22:22 05:27:31 76° 69° (ENE) 05:32:37 ?
STRAND 1 23 Oct 05:28:02 05:30:37 14° 50° (NE) 05:33:12 ?
AO-27 23 Oct 05:29:11 05:33:22 25° 302° (WNW) 05:37:32 436.795 MHz FM
RS-15 23 Oct 05:42:11 05:52:44 47° 23° (NNE) 06:03:35 29.354 - 29.394 USB, Beacon 29.352 USB
Sapphire 23 Oct 06:08:35 06:14:00 78° 308° (NW) 06:19:29 437.095 MHz 1200 baud AX-25 AFSK
AO-Echo 23 Oct 06:14:22 06:15:29 11° 313° (NW) 06:16:37 ?
Uosat F 23 Oct 06:15:51 06:20:57 82° 105° (ESE) 06:26:00 435.120 FM
Uribyol 2 23 Oct 06:19:44 06:21:25 12° 313° (NW) 06:23:06 436.500 FM
ITAMSAT 1 23 Oct 06:25:28 06:26:55 11° 313° (NW) 06:28:22 435.822 SSB
PCSat 23 Oct 06:31:36 06:36:55 54° 314° (NW) 06:42:16 145.825 MHz
Gurwin Techsat 1B 23 Oct 06:33:02 06:36:05 16° 308° (NW) 06:39:08 435.225 FM
JAS-1B 23 Oct 06:40:44 06:41:08 10° 319° (NW) 06:41:33 435.800 - 435.900 CW/SSB
JAS-2 23 Oct 06:43:54 06:51:23 53° 98° (E) 06:59:01 435.800 - 435.900 CW/SSB, 435.910 FM
TMSAT-1 23 Oct 06:45:28 06:48:35 16° 308° (NW) 06:51:41 436.925 FM
OPAL 23 Oct 07:03:25 07:06:57 19° 268° (W) 07:10:29 ?
STRAND 1 23 Oct 07:03:49 07:08:55 68° 71° (ENE) 07:14:03 ?
Hamsat 23 Oct 07:04:20 07:08:20 42° 98° (E) 07:12:20 145.90 MHz
AO-7 23 Oct 07:10:40 07:18:47 60° 299° (WNW) 07:26:55 29.400 - 29.500 MHz
Sapphire 23 Oct 07:53:54 07:58:17 24° 331° (NNW) 08:02:42 437.095 MHz 1200 baud AX-25 AFSK
RS-15 23 Oct 07:55:13 08:06:21 86° 232° (SW) 08:17:56 29.354 - 29.394 USB, Beacon 29.352 USB
Uosat F 23 Oct 07:55:39 07:59:10 19° 305° (NW) 08:02:40 435.120 FM
SO-67 23 Oct 08:00:25 08:03:14 23° 94° (E) 08:06:01 435.3500 MHz FM
Saudisat 1A 23 Oct 08:07:37 08:10:10 15° 112° (ESE) 08:12:43 436.775 MHz
PCSat 23 Oct 08:17:36 08:21:32 20° 338° (NNW) 08:25:29 145.825 MHz
JAS-2 23 Oct 08:29:11 08:36:18 46° 297° (WNW) 08:43:39 435.800 - 435.900 CW/SSB, 435.910 FM
Hamsat 23 Oct 08:40:43 08:44:06 24° 297° (WNW) 08:47:30 145.90 MHz
STRAND 1 23 Oct 08:44:50 08:48:37 20° 270° (W) 08:52:25 ?
AO-7 23 Oct 09:04:24 09:10:03 21° 322° (NW) 09:15:42 29.400 - 29.500 MHz
SO-67 23 Oct 09:33:12 09:36:15 29° 292° (WNW) 09:39:17 435.3500 MHz FM
Sapphire 23 Oct 09:40:44 09:43:43 15° 357° (N) 09:46:41 437.095 MHz 1200 baud AX-25 AFSK
Saudisat 1A 23 Oct 09:44:43 09:49:07 89° 311° (NW) 09:53:34 436.775 MHz
MaSat-1 23 Oct 09:48:17 09:51:07 68° 56° (NE) 09:53:39 437.345 MHz
HO-68 23 Oct 09:50:06 09:56:33 34° 94° (E) 10:02:57 435.675 MHz FM
PCSat 23 Oct 10:04:07 10:07:06 15° 4° (N) 10:10:05 145.825 MHz
UKube-1 23 Oct 10:07:04 10:09:29 14° 89° (E) 10:11:53 145.840 MHz, 145.915 MHz
RS-15 23 Oct 10:08:23 10:17:19 29° 256° (WSW) 10:26:33 29.354 - 29.394 USB, Beacon 29.352 USB
JAS-2 23 Oct 10:15:57 10:19:38 15° 319° (NW) 10:23:25 435.800 - 435.900 CW/SSB, 435.910 FM
FUNcube-1 23 Oct 10:43:43 10:46:01 14° 87° (E) 10:48:17 145.950 - 145.970 MHz USB
Oscar 11 23 Oct 10:49:02 10:52:58 33° 96° (E) 10:56:51 145.825 FM, Beacon 2401.500 USB
Sapphire 23 Oct 11:25:17 11:29:17 20° 23° (NNE) 11:33:16 437.095 MHz 1200 baud AX-25 AFSK
Saudisat 1A 23 Oct 11:25:41 11:29:16 24° 333° (NNW) 11:32:54 436.775 MHz
ZACube-1 23 Oct 11:33:34 11:37:40 41° 98° (E) 11:41:40 437.345 MHz
HO-68 23 Oct 11:37:36 11:44:41 62° 295° (WNW) 11:51:44 435.675 MHz FM
UKube-1 23 Oct 11:41:49 11:46:13 76° 287° (WNW) 11:50:34 145.840 MHz, 145.915 MHz
PCSat 23 Oct 11:48:03 11:52:30 25° 30° (NNE) 11:56:55 145.825 MHz
JAS-1B 23 Oct 12:00:59 12:03:15 13° 45° (NE) 12:05:31 435.800 - 435.900 CW/SSB
FUNcube-1 23 Oct 12:18:39 12:22:59 74° 287° (WNW) 12:27:11 145.950 - 145.970 MHz USB
KITSAT 1 23 Oct 12:20:25 12:26:33 25° 105° (ESE) 12:32:41 435.175 FM
Oscar 11 23 Oct 12:25:18 12:29:07 31° 295° (WNW) 12:32:56 145.825 FM, Beacon 2401.500 USB
Oscar 16 23 Oct 12:27:38 12:31:06 19° 55° (NE) 12:34:34 437.025 USB, Beacon 2401.1428
AO-Echo 23 Oct 12:37:15 12:39:11 12° 49° (NE) 12:41:09 ?
Uribyol 2 23 Oct 12:45:37 12:48:06 14° 50° (NE) 12:50:36 436.500 FM
AO-7 23 Oct 12:46:49 12:48:45 11° 18° (NNE) 12:50:41 29.400 - 29.500 MHz
ITAMSAT 1 23 Oct 12:51:03 12:53:41 14° 50° (NE) 12:56:21 435.822 SSB
Gurwin Techsat 1B 23 Oct 13:03:39 13:04:37 11° 46° (NE) 13:05:36 435.225 FM
Saudisat 1A 23 Oct 13:07:57 13:10:20 14° 357° (N) 13:12:44 436.775 MHz
Sapphire 23 Oct 13:08:30 13:13:53 56° 47° (NE) 13:19:13 437.095 MHz 1200 baud AX-25 AFSK
ZACube-1 23 Oct 13:10:20 13:13:54 26° 297° (WNW) 13:17:24 437.345 MHz
TMSAT-1 23 Oct 13:16:29 13:16:55 10° 46° (NE) 13:17:21 436.925 FM
Oscar 19 23 Oct 13:19:35 13:24:24 42° 65° (ENE) 13:29:13 437.125 CW, 437.150 USB
UKube-1 23 Oct 13:19:49 13:21:40 13° 307° (NW) 13:23:31 145.840 MHz, 145.915 MHz
SO-50 23 Oct 13:22:35 13:25:17 16° 111° (ESE) 13:28:02 436.795 FM
HO-68 23 Oct 13:26:31 13:31:06 19° 317° (NW) 13:35:41 435.675 MHz FM
PCSat 23 Oct 13:31:15 13:36:44 81° 52° (NE) 13:42:10 145.825 MHz
AO-27 23 Oct 13:34:00 13:38:23 28° 60° (ENE) 13:42:47 436.795 MHz FM
JAS-1B 23 Oct 13:47:03 13:52:48 59° 68° (ENE) 13:58:23 435.800 - 435.900 CW/SSB
FUNcube-1 23 Oct 13:57:07 13:58:35 12° 307° (NW) 14:00:01 145.950 - 145.970 MHz USB
Oscar 16 23 Oct 14:04:39 14:09:50 87° 254° (WSW) 14:15:02 437.025 USB, Beacon 2401.1428
AO-Echo 23 Oct 14:12:06 14:16:56 60° 70° (ENE) 14:21:58 ?
KITSAT 1 23 Oct 14:12:50 14:20:56 87° 127° (SE) 14:29:04 435.175 FM
Uribyol 2 23 Oct 14:21:29 14:26:38 64° 70° (ENE) 14:31:50 436.500 FM
ITAMSAT 1 23 Oct 14:27:06 14:32:17 67° 70° (ENE) 14:37:30 435.822 SSB
AO-7 23 Oct 14:32:16 14:38:44 27° 44° (NE) 14:45:12 29.400 - 29.500 MHz
Gurwin Techsat 1B 23 Oct 14:38:19 14:43:24 48° 67° (ENE) 14:48:30 435.225 FM
Saudisat 1A 23 Oct 14:48:16 14:51:31 20° 21° (NNE) 14:54:46 436.775 MHz
TMSAT-1 23 Oct 14:50:34 14:55:37 46° 66° (ENE) 15:00:41 436.925 FM
Sapphire 23 Oct 14:52:19 14:57:04 32° 247° (WSW) 15:01:48 437.095 MHz 1200 baud AX-25 AFSK
UOSAT-12 23 Oct 14:55:06 14:57:16 13° 109° (ESE) 14:59:26 437.025 FM, 437.400 FM
Oscar 19 23 Oct 14:59:12 15:03:51 33° 265° (W) 15:08:31 437.125 CW, 437.150 USB
SO-50 23 Oct 15:00:37 15:05:10 90° 318° (NW) 15:09:53 436.795 FM
ISS 23 Oct 15:08:51 15:12:00 40° 153° (SSE) 15:15:10 145.800 FM
AO-27 23 Oct 15:12:31 15:17:38 54° 259° (W) 15:22:47 436.795 MHz FM
PCSat 23 Oct 15:15:38 15:19:32 20° 252° (WSW) 15:23:26 145.825 MHz
JAS-2 23 Oct 15:22:49 15:24:27 11° 36° (NE) 15:26:07 435.800 - 435.900 CW/SSB, 435.910 FM
JAS-1B 23 Oct 15:39:20 15:44:01 24° 268° (W) 15:48:35 435.800 - 435.900 CW/SSB
Oscar 16 23 Oct 15:47:12 15:49:58 14° 274° (W) 15:52:44 437.025 USB, Beacon 2401.1428
AO-Echo 23 Oct 15:52:21 15:56:09 22° 270° (W) 16:00:03 ?
Uosat F 23 Oct 15:56:17 16:00:42 32° 62° (ENE) 16:05:08 435.120 FM
Uribyol 2 23 Oct 16:02:33 16:06:34 22° 269° (W) 16:10:37 436.500 FM
ITAMSAT 1 23 Oct 16:08:22 16:12:16 21° 270° (W) 16:16:12 435.822 SSB
KITSAT 1 23 Oct 16:09:48 16:17:16 39° 332° (NNW) 16:24:45 435.175 FM
Gurwin Techsat 1B 23 Oct 16:18:56 16:23:35 30° 266° (W) 16:28:15 435.225 FM
AO-7 23 Oct 16:22:11 16:30:27 80° 67° (ENE) 16:38:46 29.400 - 29.500 MHz
Saudisat 1A 23 Oct 16:27:33 16:31:57 60° 44° (NE) 16:36:20 436.775 MHz
TMSAT-1 23 Oct 16:31:02 16:35:43 31° 266° (W) 16:40:27 436.925 FM
UOSAT-12 23 Oct 16:31:57 16:36:37 76° 129° (SE) 16:41:22 437.025 FM, 437.400 FM
SO-50 23 Oct 16:42:29 16:46:21 25° 333° (NNW) 16:50:18 436.795 FM
ISS 23 Oct 16:45:14 16:48:35 83° 352° (N) 16:51:57 145.800 FM
JAS-2 23 Oct 17:01:54 17:07:30 38° 59° (ENE) 17:13:47 435.800 - 435.900 CW/SSB, 435.910 FM
OPAL 23 Oct 17:29:27 17:31:16 12° 87° (E) 17:33:06 ?
Uosat F 23 Oct 17:34:34 17:39:22 44° 261° (W) 17:44:12 435.120 FM
Hamsat 23 Oct 18:02:16 18:06:24 57° 72° (ENE) 18:10:32 145.90 MHz
Saudisat 1A 23 Oct 18:07:38 18:11:13 24° 243° (WSW) 18:14:47 436.775 MHz
KITSAT 1 23 Oct 18:08:22 18:15:05 27° 1° (N) 18:21:48 435.175 FM
UOSAT-12 23 Oct 18:13:08 18:17:14 29° 330° (NNW) 18:21:23 437.025 FM, 437.400 FM
AO-7 23 Oct 18:17:14 18:24:07 29° 268° (W) 18:31:03 29.400 - 29.500 MHz
ISS 23 Oct 18:22:00 18:25:22 89° 193° (SSW) 18:28:43 145.800 FM
SO-50 23 Oct 18:25:35 18:28:28 16° 358° (N) 18:31:23 436.795 FM
SO-67 23 Oct 18:38:16 18:40:42 18° 64° (ENE) 18:43:08 435.3500 MHz FM
HO-68 23 Oct 18:41:18 18:44:35 14° 36° (NE) 18:47:52 435.675 MHz FM
JAS-2 23 Oct 18:46:33 18:52:23 51° 263° (W) 18:59:04 435.800 - 435.900 CW/SSB, 435.910 FM
OPAL 23 Oct 19:06:01 19:11:02 77° 107° (ESE) 19:15:59 ?
STRAND 1 23 Oct 19:10:33 19:13:39 16° 87° (E) 19:16:44 ?
Hamsat 23 Oct 19:39:53 19:42:43 18° 270° (W) 19:45:34 145.90 MHz
UOSAT-12 23 Oct 19:55:54 19:58:51 16° 354° (N) 20:01:49 437.025 FM, 437.400 FM
ISS 23 Oct 19:58:51 20:01:51 30° 211° (SSW) 20:04:49 145.800 FM
KITSAT 1 23 Oct 20:05:18 20:12:51 40° 30° (NNE) 20:20:22 435.175 FM
SO-50 23 Oct 20:06:57 20:10:41 22° 22° (NNE) 20:14:27 436.795 FM
SO-67 23 Oct 20:10:12 20:13:27 39° 262° (W) 20:16:43 435.3500 MHz FM
HO-68 23 Oct 20:23:53 20:30:34 44° 59° (ENE) 20:37:17 435.675 MHz FM
OPAL 23 Oct 20:45:48 20:49:25 20° 307° (NW) 20:53:00 ?
STRAND 1 23 Oct 20:48:21 20:53:33 86° 287° (WNW) 20:58:43 ?
ZACube-1 23 Oct 21:02:01 21:03:20 11° 53° (NE) 21:04:38 437.345 MHz
UKube-1 23 Oct 21:06:52 21:10:25 25° 62° (ENE) 21:13:59 145.840 MHz, 145.915 MHz
UOSAT-12 23 Oct 21:37:11 21:40:42 20° 19° (NNE) 21:44:12 437.025 FM, 437.400 FM
FUNcube-1 23 Oct 21:44:15 21:47:54 24° 62° (ENE) 21:51:30 145.950 - 145.970 MHz USB
SO-50 23 Oct 21:47:18 21:52:06 65° 44° (NE) 21:56:57 436.795 FM
Oscar 11 23 Oct 21:48:41 21:52:52 49° 70° (ENE) 21:57:03 145.825 FM, Beacon 2401.500 USB
KITSAT 1 23 Oct 22:00:57 22:09:04 82° 235° (SW) 22:17:08 435.175 FM
HO-68 23 Oct 22:11:21 22:18:15 49° 260° (W) 22:25:13 435.675 MHz FM
RS-15 23 Oct 22:26:08 22:35:31 35° 107° (ESE) 22:44:51 29.354 - 29.394 USB, Beacon 29.352 USB
STRAND 1 23 Oct 22:28:45 22:32:03 17° 307° (NW) 22:35:19 ?
ZACube-1 23 Oct 22:34:22 22:38:54 64° 72° (ENE) 22:43:23 437.345 MHz
UKube-1 23 Oct 22:42:13 22:46:24 45° 260° (W) 22:50:37 145.840 MHz, 145.915 MHz
UOSAT-12 23 Oct 23:17:11 23:21:51 53° 41° (NE) 23:26:27 437.025 FM, 437.400 FM
FUNcube-1 23 Oct 23:19:33 23:24:01 51° 260° (W) 23:28:26 145.950 - 145.970 MHz USB
Oscar 11 23 Oct 23:25:59 23:29:19 21° 268° (W) 23:32:40 145.825 FM, Beacon 2401.500 USB
SO-50 23 Oct 23:28:23 23:32:20 25° 244° (WSW) 23:36:18 436.795 FM
KITSAT 1 23 Oct 23:57:29 00:03:20 23° 256° (WSW) 00:09:11 435.175 FM
ZACube-1 24 Oct 00:12:32 00:15:42 18° 270° (W) 00:18:51 437.345 MHz
RS-15 24 Oct 00:35:47 00:46:46 83° 313° (NW) 00:57:51 29.354 - 29.394 USB, Beacon 29.352 USB
UOSAT-12 24 Oct 00:57:41 01:01:50 31° 242° (WSW) 01:05:55 437.025 FM, 437.400 FM
MaSat-1 24 Oct 01:04:43 01:08:43 57° 119° (ESE) 01:12:18 437.345 MHz
